Zurück zum Katalog

STARLINK-4618

AktivKommunikationVLEO
NORAD 53735·PAYLOAD·🇺🇸 United States

Gestartet Sep 5, 2022 von Cape Canaveral Space Force Station

Loading…

Nächste Überflüge (nächste 24 Stunden)

TLE

AktuellSource: CelesTrak SupGP

Epoche: Sep 14, 2026, 20:31 UTC

1 53735C 22107AM  26257.85534722 -.00022452  00000+0 -66371-3 0  2572
2 53735  53.1576 119.8206 0001266  86.5138  47.9390 15.34384299    16

Verfolge STARLINK-4618 in Echtzeit mit AllMySat

Download on the App Store